Location: Ferchesar
(52.6477°N, 12.4298°E)
Time: 05:27:33
(UTC+01:00)

Vanguard 1 Rocket - Pass Details

Date: 15 December 2021
Orbit: 651 x 4224 km, 34.3° (Epoch: 15 January)

Event Time Altitude Azimuth Distance (km) Brightness Sun altitude
Exits shadow 01:40:04 13° 122° (ESE) 4,473 10.9 -55.5°
Drops below altitude 10° 01:41:54 10° 118° (ESE) 4,979 11.2 -55.3°
Sets 01:47:59 0° 108° (ESE) 6,677 12.0 -54.7°
